CW4409 Weather Reports


time (UTC)temp
C
wind
direction
speed
KPH
gust
KPH
rain 1hr
cm
rain 24hr
cm
rain mn
cm
humidity
%
barometer
mb
20260506015931 23 33 9.7 20.9 0.00 0.00 0.00 20 1006.2
20260506014919 23 25 9.7 25.7 0.00 0.00 0.00 20 1006.0
20260506013905 24 29 9.7 20.9 0.00 0.00 0.00 20 1006.0
20260506012923 24 31 6.4 20.9 0.00 0.00 0.00 20 1005.9
20260506011855 24 48 11.3 25.7 0.00 0.00 0.00 20 1005.8
20260506010931 25 46 11.3 30.6 0.00 0.00 0.00 20 1005.8
20260506005919 25 26 12.9 25.7 0.00 0.00 0.00 19 1005.7
20260506004850 25 33 14.5 27.4 0.00 0.00 0.00 19 1005.7
20260506003905 25 30 12.9 25.7 0.00 0.00 0.00 19 1005.7
20260506002917 25 39 12.9 32.2 0.00 0.00 0.00 18 1005.8
20260506001900 25 20 16.1 33.8 0.00 0.00 0.00 17 1005.7
20260506000912 25 40 16.1 25.7 0.00 0.00 0.00 18 1005.8
20260505235908 25 22 14.5 33.8 0.00 0.00 0.00 16 1005.8
20260505234914 25 39 12.9 24.1 0.00 0.00 0.00 18 1005.7
20260505233903 26 22 12.9 32.2 0.00 0.00 0.00 17 1005.8
20260505232850 26 16 12.9 25.7 0.00 0.00 0.00 18 1005.9
20260505231855 26 22 16.1 29.0 0.00 0.00 0.00 17 1005.8
20260505230852 26 30 11.3 25.7 0.00 0.00 0.00 18 1005.8
20260505225919 25 16 14.5 25.7 0.00 0.00 0.00 18 1006.0
20260505224848 26 20 17.7 35.4 0.00 0.00 0.00 17 1006.1
20260505223907 26 8 16.1 35.4 0.00 0.00 0.00 19 1006.2
20260505222851 26 7 16.1 29.0 0.00 0.00 0.00 18 1006.3
20260505221913 26 348 8.0 20.9 0.00 0.00 0.00 20 1006.3
20260505220915 26 352 9.7 19.3 0.00 0.00 0.00 20 1006.3
20260505215928 26 18 17.7 30.6 0.00 0.00 0.00 18 1006.7
20260505214853 26 6 9.7 24.1 0.00 0.00 0.00 20 1006.8
20260505213907 26 348 11.3 24.1 0.00 0.00 0.00 22 1006.8
20260505212927 25 9 8.0 19.3 0.00 0.00 0.00 21 1006.8
20260505211853 26 17 8.0 14.5 0.00 0.00 0.00 24 1007.0
20260505210904 25 22 0.0 12.9 0.00 0.00 0.00 25 1007.3
20260505205907 25 16 8.0 20.9 0.00 0.00 0.00 24 1007.5
20260505204922 24 6 6.4 19.3 0.00 0.00 0.00 24 1007.5
20260505203921 25 355 6.4 25.7 0.00 0.00 0.00 22 1007.6
20260505202910 25 42 8.0 19.3 0.00 0.00 0.00 24 1007.6
20260505201900 24 321 4.8 17.7 0.00 0.00 0.00 25 1007.6
20260505200850 24 4 11.3 17.7 0.00 0.00 0.00 26 1007.9
20260505195928 24 275 6.4 11.3 0.00 0.00 0.00 25 1007.9
20260505194924 24 273 0.0 14.5 0.00 0.00 0.00 23 1008.0
20260505193925 23 269 1.6 9.7 0.00 0.00 0.00 27 1008.0
20260505192903 23 268 6.4 16.1 0.00 0.00 0.00 25 1008.0
20260505191925 23 260 1.6 11.3 0.00 0.00 0.00 26 1008.2
20260505190917 23 258 0.0 16.1 0.00 0.00 0.00 25 1008.4
20260505185917 22 244 3.2 17.7 0.00 0.00 0.00 25 1008.5
20260505184848 22 237 1.6 14.5 0.00 0.00 0.00 27 1008.5
20260505183926 22 232 8.0 14.5 0.00 0.00 0.00 26 1008.5
20260505182913 22 231 8.0 16.1 0.00 0.00 0.00 27 1008.6
20260505181926 22 215 11.3 16.1 0.00 0.00 0.00 26 1008.6
20260505180851 21 205 8.0 19.3 0.00 0.00 0.00 27 1008.6
20260505175903 21 230 11.3 17.7 0.00 0.00 0.00 27 1008.6
20260505174913 21 236 8.0 16.1 0.00 0.00 0.00 27 1008.6
20260505173857 21 244 11.3 17.7 0.00 0.00 0.00 27 1008.7
20260505172906 21 202 9.7 12.9 0.00 0.00 0.00 27 1008.7
20260505171917 21 196 9.7 14.5 0.00 0.00 0.00 27 1008.6
20260505170917 20 196 6.4 14.5 0.00 0.00 0.00 27 1008.6
20260505165849 20 198 12.9 19.3 0.00 0.00 0.00 28 1008.5
20260505164907 20 195 11.3 24.1 0.00 0.00 0.00 28 1008.5
20260505163909 20 217 11.3 20.9 0.00 0.00 0.00 29 1008.4
20260505162925 20 209 9.7 24.1 0.00 0.00 0.00 28 1008.2
20260505161900 20 213 11.3 20.9 0.00 0.00 0.00 28 1008.2
20260505160915 19 219 12.9 24.1 0.00 0.00 0.00 28 1008.1
20260505152851 17 243 8.0 16.1 0.00 0.00 0.00 45 1007.8
20260505151848 16 192 4.8 11.3 0.00 0.00 0.00 51 1007.8
20260505150920 16 188 8.0 14.5 0.00 0.00 0.00 50 1007.8
20260505124926 10 17 0.0 1.6 0.00 0.00 0.00 57 1005.9
20260505123901 11 17 0.0 1.6 0.00 0.00 0.00 56 1005.7
20260505122851 11 17 0.0 6.4 0.00 0.00 0.00 56 1005.6
20260505121859 12 17 1.6 8.0 0.00 0.00 0.00 53 1005.2
20260505120901 12 17 0.0 0.0 0.00 0.00 0.00 52 1005.2
20260505115905 12 17 0.0 0.0 0.00 0.00 0.00 50 1005.1
20260505114852 13 17 0.0 1.6 0.00 0.00 0.00 50 1004.9
20260505113910 13 17 0.0 4.8 0.00 0.00 0.00 48 1004.7
20260505112907 14 17 3.2 11.3 0.00 0.00 0.00 46 1004.5
20260505111855 15 18 9.7 14.5 0.00 0.00 0.00 44 1004.4
20260505110903 15 19 6.4 12.9 0.00 0.00 0.00 43 1004.1
20260505101900 15 5 8.0 12.9 0.00 0.00 0.00 43 1004.1
20260505100930 15 5 4.8 9.7 0.00 0.00 0.00 41 1004.1
20260505095922 16 5 6.4 17.7 0.00 0.00 0.00 40 1003.8
20260505094911 16 0 6.4 19.3 0.00 0.00 0.00 38 1003.6
20260505093910 16 16 11.3 24.1 0.00 0.00 0.00 38 1003.5
20260505092924 16 11 14.5 25.7 0.00 0.00 0.00 37 1003.2
20260505091915 16 7 16.1 27.4 0.00 0.00 0.00 36 1003.0
20260505090849 16 9 17.7 30.6 0.00 0.00 0.00 35 1003.0
20260505085850 16 9 17.7 32.2 0.00 0.00 0.00 34 1002.9
20260505084905 16 8 19.3 27.4 0.00 0.00 0.00 34 1002.9
20260505083925 17 7 17.7 29.0 0.00 0.00 0.00 34 1003.0
20260505082933 17 7 16.1 30.6 0.00 0.00 0.00 34 1002.9
20260505081915 17 10 19.3 30.6 0.00 0.00 0.00 33 1002.9
20260505080931 17 6 22.5 33.8 0.00 0.00 0.00 31 1002.9
20260505075857 18 15 22.5 30.6 0.00 0.00 0.00 30 1003.0
20260505074928 18 12 17.7 29.0 0.00 0.00 0.00 29 1003.0
20260505073904 18 17 17.7 27.4 0.00 0.00 0.00 29 1003.0
20260505072853 18 15 17.7 30.6 0.00 0.00 0.00 29 1003.0
20260505071851 18 13 17.7 27.4 0.00 0.00 0.00 29 1003.0
20260505070923 18 15 17.7 29.0 0.00 0.00 0.00 30 1002.9
20260505065931 18 12 17.7 27.4 0.00 0.00 0.00 31 1002.9
20260505064917 18 15 14.5 27.4 0.00 0.00 0.00 31 1002.9
20260505063900 18 15 16.1 29.0 0.00 0.00 0.00 30 1002.8
20260505062929 18 12 19.3 25.7 0.00 0.00 0.00 29 1002.9
20260505061922 18 12 16.1 24.1 0.00 0.00 0.00 31 1002.9
20260505060849 18 8 12.9 24.1 0.00 0.00 0.00 30 1002.9
20260505055932 18 11 16.1 24.1 0.00 0.00 0.00 30 1002.8
20260505054848 17 14 14.5 25.7 0.00 0.00 0.00 31 1002.8
20260505053908 18 15 12.9 24.1 0.00 0.00 0.00 32 1002.6
20260505052926 18 8 16.1 24.1 0.00 0.00 0.00 32 1002.4
20260505051917 18 16 11.3 19.3 0.00 0.00 0.00 32 1002.5
20260505050913 18 16 12.9 17.7 0.00 0.00 0.00 30 1002.5
20260505040921 20 15 6.4 16.1 0.00 0.00 0.00 30 1002.3
20260505035908 19 14 11.3 19.3 0.00 0.00 0.00 31 1002.1
20260505034931 19 12 9.7 16.1 0.00 0.00 0.00 33 1002.0
20260505033855 19 10 11.3 16.1 0.00 0.00 0.00 33 1001.9
20260505032921 20 12 11.3 17.7 0.00 0.00 0.00 32 1001.8
20260505031924 21 15 11.3 16.1 0.00 0.00 0.00 30 1001.7
20260505030915 21 13 8.0 16.1 0.00 0.00 0.00 29 1001.5
20260505025904 22 14 9.7 17.7 0.00 0.00 0.00 28 1001.4
20260505024916 22 10 12.9 17.7 0.00 0.00 0.00 27 1001.4
20260505023914 23 8 11.3 17.7 0.00 0.00 0.00 26 1001.3
20260505022900 23 11 11.3 17.7 0.00 0.00 0.00 25 1001.3
20260505021912 23 11 11.3 19.3 0.00 0.00 0.00 25 1001.2
20260505020911 24 9 11.3 17.7 0.00 0.00 0.00 25 1001.2